Tracking 28790 objects as of 19-Apr-2024
HD Live streaming from Space Station
objects crossing your sky now

DSN-2

Track DSN-2 now!


NORAD ID: 41940
Int'l Code: 2017-005A
Perigee: 35,777.4 km
Apogee: 35,811.1 km
Inclination: 0.0 °
Period: 1,436.1 minutes
Semi major axis: 42165 km
RCS: Unknown
Launch date: January 24, 2017
Source: Japan (JPN)
Launch site: TANEGASHIMA SPACE CENTER (TNSTA)
Your satellite tracking list
Your tracking list is empty




NASA's NSSDC Master Catalog

Two Line Element Set (TLE):
1 41940U 17005A   20259.52607417 0.00000000  00000-0  00000-0 0    04
2 41940   0.0250 277.3055 0004000  57.1737 302.8575  1.00270000    00
Source of the keplerian elements: McCants